Torna al catalogo

FENGYUN 1C DEB

AttivoPO
NORAD 31631·DEBRIS·🇨🇳 China

Lanciato May 10, 1999 da Taiyuan Satellite Launch Center

Loading…

Prossimi Passaggi (prossime 24 ore)

TLE

AggiornatoSource: Space-Track

Epoca: Sep 14, 2026, 04:10 UTC

1 31631U 99025CAM 26257.17424343  .00250440  00000-0  88546-2 0  9997
2 31631  99.3074 224.3071 0025787 142.2783 218.0265 15.27790357680849

Traccia FENGYUN 1C DEB in tempo reale con AllMySat

Download on the App Store